CST,Max TemperatureF,Mean TemperatureF,Min TemperatureF,Max Dew PointF,MeanDew PointF,Min DewpointF,Max Humidity, Mean Humidity, Min Humidity, Max Sea Level PressureIn, Mean Sea Level PressureIn, Min Sea Level PressureIn, Max VisibilityMiles, Mean VisibilityMiles, Min VisibilityMiles, Max Wind SpeedMPH, Mean Wind SpeedMPH, Max Gust SpeedMPH,PrecipitationIn, CloudCover, Events, WindDirDegrees
2013-2-1,42,24,5,34,20,-4,82,74,66,30.37,30.13,30.00,10,10,10,18,9,24,T,7,Rain,241
2013-2-2,47,37,26,34,29,24,100,77,53,30.25,30.12,30.06,10,9,2,33,16,40,T,6,Rain-Snow,311
2013-2-3,57,42,27,30,26,22,92,61,30,30.26,29.96,29.79,10,9,0,22,11,26,0.00,2,Fog,268
2013-2-4,44,32,19,29,22,17,100,79,57,30.04,29.93,29.81,10,7,0,16,8,20,0.00,8,Fog,258
2013-2-5,47,39,30,28,26,23,78,58,38,30.05,29.95,29.80,10,10,10,22,13,26,0.00,4,,308
2013-2-6,50,43,36,32,29,23,70,56,42,30.03,29.86,29.77,10,10,10,28,12,35,0.00,2,,267
2013-2-7,36,31,25,28,26,24,100,88,75,30.25,30.17,30.05,10,4,0,13,6,15,T,7,Fog,33
2013-2-8,54,39,24,29,26,21,100,71,41,30.25,30.05,29.86,10,8,2,30,18,36,0.00,3,,160
2013-2-9,37,30,23,27,26,21,100,82,64,29.89,29.77,29.62,10,4,0,22,7,29,T,7,Fog-Snow,321
2013-2-10,30,28,25,28,25,21,100,92,84,29.96,29.65,29.42,6,1,0,45,29,55,0.00,8,Fog-Snow,327
2013-2-11,26,20,14,21,16,13,84,76,68,30.19,30.10,29.90,10,10,4,32,14,38,0.00,5,,281
2013-2-12,39,29,19,29,19,10,70,62,53,30.08,30.00,29.94,10,10,10,21,10,25,0.00,1,,253
2013-2-13,48,40,31,33,27,21,82,69,55,29.93,29.81,29.70,10,10,10,31,14,38,0.00,3,,273
2013-2-14,37,27,17,30,23,13,81,71,61,30.38,30.13,29.91,10,7,0,49,17,59,T,7,Fog-Snow,317
2013-2-15,28,21,13,19,16,10,91,80,68,30.43,30.36,30.27,10,8,2,26,10,32,T,6,Snow,311
2013-2-16,49,34,19,33,24,13,92,73,53,30.27,30.04,29.93,10,9,4,21,11,25,T,4,Snow,191
2013-2-17,56,43,29,31,28,26,85,59,32,29.91,29.67,29.47,10,10,10,24,13,32,0.00,0,,220
2013-2-18,38,27,15,28,18,10,75,62,49,30.25,29.96,29.71,10,10,4,35,23,43,T,6,Snow,327
2013-2-19,18,11,4,10,1,-1,88,68,47,30.44,30.36,30.22,10,10,5,20,10,24,T,3,Snow,13
2013-2-20,26,16,5,16,7,-1,84,61,38,30.39,30.22,30.08,10,8,2,24,17,29,0.00,6,Snow,127
2013-2-21,20,18,16,16,15,12,92,85,77,30.20,30.08,29.98,10,2,1,20,11,23,0.00,8,Snow,83
2013-2-22,22,14,5,14,9,3,96,84,71,30.11,30.04,29.95,10,6,2,12,7,14,0.00,4,Snow,295
2013-2-23,35,25,14,24,17,10,88,70,51,29.92,29.83,29.75,10,10,10,14,4,17,0.00,1,,153
2013-2-24,35,24,12,32,24,10,96,87,78,30.14,30.02,29.87,10,6,2,14,7,17,0.00,6,Snow,308
2013-2-25,40,30,19,29,23,17,96,72,48,30.16,30.09,29.98,10,9,5,9,5,12,T,1,,255
2013-2-26,25,18,11,22,18,9,100,87,74,30.12,29.98,29.89,10,6,0,13,6,14,0.00,5,Fog,69
2013-2-27,35,29,22,30,25,19,96,84,72,30.27,30.16,30.03,10,6,1,23,13,29,T,7,Rain,325
2013-2-28,32,26,19,23,22,17,92,79,66,30.33,30.28,30.21,10,10,8,18,9,22,0.00,7,,3